TimeEST,TemperatureF,Dew PointF,Humidity,Sea Level PressureIn,VisibilityMPH,Wind Direction,Wind SpeedMPH,Gust SpeedMPH,PrecipitationIn,Events,Conditions,WindDirDegrees,DateUTC
12:53 AM,37.9,30.9,76,30.18,10.0,Calm,Calm,-,N/A,,Partly Cloudy,0,2012-11-20 05:53:00
1:53 AM,37.0,30.9,79,30.16,10.0,ESE,3.5,-,N/A,,Mostly Cloudy,120,2012-11-20 06:53:00
2:53 AM,39.9,33.1,77,30.16,10.0,Calm,Calm,-,N/A,,Mostly Cloudy,0,2012-11-20 07:53:00
3:53 AM,39.9,33.1,77,30.15,10.0,Calm,Calm,-,N/A,,Overcast,0,2012-11-20 08:53:00
4:53 AM,42.1,32.0,67,30.14,10.0,Calm,Calm,-,N/A,,Overcast,0,2012-11-20 09:53:00
5:53 AM,41.0,32.0,70,30.14,10.0,SE,3.5,-,N/A,,Mostly Cloudy,130,2012-11-20 10:53:00
6:53 AM,39.2,32.0,75,30.12,10.0,SSE,3.5,-,N/A,,Mostly Cloudy,150,2012-11-20 11:53:00
7:53 AM,41.0,33.1,73,30.15,8.0,Calm,Calm,-,N/A,,Mostly Cloudy,0,2012-11-20 12:53:00
8:53 AM,43.0,35.1,74,30.15,8.0,Calm,Calm,-,N/A,,Overcast,0,2012-11-20 13:53:00
9:53 AM,46.9,35.1,63,30.14,8.0,South,5.8,-,N/A,,Overcast,180,2012-11-20 14:53:00
10:53 AM,50.0,37.0,61,30.14,8.0,Calm,Calm,-,N/A,,Overcast,0,2012-11-20 15:53:00
11:53 AM,55.0,39.9,57,30.13,10.0,Calm,Calm,-,N/A,,Overcast,0,2012-11-20 16:53:00
12:53 PM,55.0,39.9,57,30.11,10.0,Calm,Calm,-,N/A,,Overcast,0,2012-11-20 17:53:00
1:53 PM,55.9,39.0,53,30.09,10.0,SSW,3.5,-,N/A,,Overcast,210,2012-11-20 18:53:00
2:53 PM,54.0,39.9,59,30.09,10.0,Calm,Calm,-,N/A,,Overcast,0,2012-11-20 19:53:00
3:53 PM,55.0,39.0,55,30.09,10.0,Calm,Calm,-,N/A,,Overcast,0,2012-11-20 20:53:00
4:53 PM,52.0,41.0,66,30.12,10.0,NE,3.5,-,N/A,,Overcast,40,2012-11-20 21:53:00
5:53 PM,51.1,41.0,68,30.14,10.0,North,3.5,-,N/A,,Overcast,350,2012-11-20 22:53:00
6:53 PM,50.0,41.0,71,30.15,9.0,Calm,Calm,-,N/A,,Overcast,0,2012-11-20 23:53:00
7:53 PM,48.9,39.9,71,30.16,7.0,NNE,3.5,-,N/A,,Overcast,30,2012-11-21 00:53:00
8:53 PM,45.0,39.0,80,30.16,6.0,ENE,3.5,-,N/A,,Haze,70,2012-11-21 01:53:00
9:53 PM,43.0,37.9,82,30.17,6.0,Calm,Calm,-,N/A,,Haze,0,2012-11-21 02:53:00
10:53 PM,41.0,37.0,86,30.17,4.0,Calm,Calm,-,N/A,,Clear,0,2012-11-21 03:53:00
11:33 PM,39.2,35.6,87,30.16,2.5,Calm,Calm,-,N/A,,Clear,0,2012-11-21 04:33:00
11:53 PM,39.0,36.0,89,30.17,2.5,Calm,Calm,-,N/A,,Partly Cloudy,0,2012-11-21 04:53:00